Change the Weather History Date:

Monday, November 25, 2013

  Actual Average Record
Temperature  
Mean Temperature 31 °F 35 °F  
Max Temperature 38 °F 43 °F 60 °F (1976)
Min Temperature 24 °F 26 °F 4 °F (1991)
Degree Days  
Heating Degree Days 34 30  
Month to date heating degree days 620 604  
Since 1 July heating degree days 1054 1088  
Cooling Degree Days 0 0  
Month to date cooling degree days 0 0  
Year to date cooling degree days 1093 946  
Moisture  
Dew Point 19 °F    
Average Humidity 71    
Maximum Humidity 85    
Minimum Humidity 56    
Precipitation  
Precipitation T in 0.06 in 0.98 in (1988)
Month to date precipitation 2.07 1.93  
Sea Level Pressure  
Sea Level Pressure 30.21 in    
Wind  
Wind Speed 11 mph (SW)    
Max Wind Speed 20 mph    
Max Gust Speed 24 mph    
Visibility 10 miles    
Events      
T = Trace of Precipitation, MM = Missing Value Source: NWS Daily Summary

Daily Weather History Graph

Daily Weather History Graph

Search for Another Location

Airport or City:

Trip Planner

Search our weather history database for the weather conditions in past years. The results will help you decide how hot, cold, wet, or windy it might be!

Date:

Astronomy

Nov. 25, 2013 Rise Set
Actual Time 7:13 AM CST 4:51 PM CST
Civil Twilight 6:43 AM CST 5:21 PM CST
Nautical Twilight 6:10 AM CST 5:54 PM CST
Astronomical Twilight 5:37 AM CST 6:27 PM CST
Moon No Moon Rise 12:30 PM CST (11/25)
Length of Visible Light 10h 37m
Length of Day
9h 37m
Waning Gibbous, 51% of the Moon is Illuminated
Nov 25
Waning Gibbous
Nov 25
Last Quarter
Dec 2
New
Dec 9
First Quarter
Dec 17
Full

Hourly Weather History & Observations

Time (CST) Temp. Windchill Dew Point Humidity Pressure Visibility Wind Dir Wind Speed Gust Speed Precip Events Conditions
12:53 AM 25.0 °F 13.6 °F 12.9 °F 60% 30.31 in 10.0 mi South 12.7 mph - N/A   Overcast
1:53 AM 25.0 °F 14.8 °F 14.0 °F 63% 30.30 in 10.0 mi South 10.4 mph - N/A   Overcast
2:26 AM 25.0 °F 14.8 °F 14.0 °F 63% 30.25 in 10.0 mi South 10.4 mph - N/A   Overcast
2:49 AM 24.8 °F 14.0 °F 14.0 °F 64% 30.24 in 10.0 mi South 11.5 mph - N/A   Overcast
2:53 AM 25.0 °F 14.8 °F 15.1 °F 66% 30.29 in 10.0 mi South 10.4 mph - N/A   Overcast
3:41 AM 26.1 °F 15.0 °F 14.0 °F 60% 30.21 in 10.0 mi South 12.7 mph - N/A   Overcast
3:53 AM 26.1 °F 15.0 °F 14.0 °F 60% 30.25 in 10.0 mi SSW 12.7 mph - N/A   Overcast
4:22 AM 26.1 °F 15.0 °F 14.0 °F 60% 30.19 in 10.0 mi South 12.7 mph - N/A   Overcast
4:53 AM 26.1 °F 15.6 °F 15.1 °F 63% 30.24 in 10.0 mi SSW 11.5 mph - N/A   Overcast
5:53 AM 27.0 °F 16.1 °F 15.1 °F 61% 30.24 in 10.0 mi SSW 12.7 mph - N/A   Overcast
6:12 AM 27.0 °F 16.7 °F 16.0 °F 63% 30.18 in 10.0 mi SSW 11.5 mph - N/A   Overcast
6:53 AM 27.0 °F 16.7 °F 16.0 °F 63% 30.23 in 10.0 mi SSW 11.5 mph - N/A   Overcast
7:53 AM 28.0 °F 17.0 °F 18.0 °F 66% 30.22 in 10.0 mi SW 13.8 mph - N/A   Overcast
8:09 AM 28.0 °F 17.5 °F 19.0 °F 69% 30.18 in 10.0 mi SW 12.7 mph - N/A   Overcast
8:53 AM 28.9 °F 17.7 °F 18.0 °F 64% 30.22 in 10.0 mi SW 15.0 mph - N/A   Overcast
9:53 AM 30.9 °F 20.2 °F 17.1 °F 57% 30.21 in 10.0 mi SW 15.0 mph - N/A   Overcast
10:53 AM 32.0 °F 22.1 °F 19.0 °F 59% 30.21 in 10.0 mi SW 13.8 mph - N/A   Overcast
11:53 AM 33.1 °F 23.4 °F 19.9 °F 59% 30.19 in 10.0 mi WSW 13.8 mph - N/A   Overcast
12:53 PM 35.1 °F 25.2 °F 21.9 °F 59% 30.18 in 10.0 mi WSW 16.1 mph - N/A   Overcast
1:53 PM 36.0 °F 27.5 °F 23.0 °F 59% 30.15 in 10.0 mi SW 12.7 mph - N/A   Clear
2:53 PM 36.0 °F 29.0 °F 24.1 °F 62% 30.15 in 10.0 mi West 9.2 mph - 0.00 in   Mostly Cloudy
3:53 PM 35.1 °F 27.4 °F 24.1 °F 64% 30.16 in 10.0 mi WSW 10.4 mph - N/A   Partly Cloudy
4:53 PM 33.1 °F 26.1 °F 24.1 °F 70% 30.17 in 10.0 mi WSW 8.1 mph - N/A   Partly Cloudy
5:53 PM 30.9 °F 24.3 °F 24.1 °F 76% 30.19 in 10.0 mi WSW 6.9 mph - N/A   Clear
6:53 PM 30.0 °F 23.2 °F 24.1 °F 79% 30.19 in 10.0 mi SW 6.9 mph - N/A   Clear
7:53 PM 28.9 °F 21.9 °F 24.1 °F 82% 30.20 in 10.0 mi SW 6.9 mph - N/A   Clear
8:53 PM 30.9 °F 25.2 °F 25.0 °F 79% 30.19 in 10.0 mi West 5.8 mph - N/A   Clear
9:53 PM 30.0 °F 23.2 °F 24.1 °F 79% 30.19 in 10.0 mi West 6.9 mph - N/A   Clear
10:53 PM 28.9 °F 21.9 °F 24.1 °F 82% 30.18 in 10.0 mi WNW 6.9 mph - N/A   Clear
11:53 PM 28.0 °F 20.8 °F 24.1 °F 85% 30.18 in 10.0 mi WNW 6.9 mph - N/A   Clear